Location: Presov
(49.0000°N, 21.2500°E)
Time: 06:51:26
(UTC+02:00)

Transit 2A Rocket - Pass Details

Date: 20 April 2021
Orbit: 594 x 909 km, 66.7° (Epoch: 07 May)

Event Time Altitude Azimuth Distance (km) Brightness Sun altitude
Rises 01:33:36 0° 313° (NW) 2,891 8.3 -28.1°
Reaches altitude 10° 01:36:10 10° 299° (WNW) 2,013 7.3 -27.9°
Enters shadow 01:36:23 11° 297° (WNW) 1,949 7.2 -27.9°
Maximum altitude 01:39:41 23° 248° (WSW) 1,404 - -27.8°
Drops below altitude 10° 01:43:23 10° 197° (SSW) 2,126 - -27.6°
Sets 01:46:12 0° 183° (S) 3,097 - -27.4°
